Date String (YYYY-MM-DD hh:mm:ss) UTC,Instrument flags,absolute air pressure of the measurement (hPa),sample flow rate (lpm),inlet stack bypass flow (lpm),air temperature of the measurement (°C),ambient temperature measured by the external sensor (°C),aerosol sample conditioner tube jacket temperature (°C),OPC LED temperature (°C),internal box temperature (°C),relative humidity of the measurement (%),span deviation,mass concentration of particles derived from Lorenz-Mie calculation of OPC scattering (μg/m³),mass concentration of particles derived from Lorenz-Mie calculation of OPC scattering (μg/m³),mass concentration of particles derived from Lorenz-Mie calculation of OPC scattering (μg/m³)
DateTimeUTC,F1_M11,P_M11,Q1_M11,Q2_M11,T1_M11,T2_M11,T3_M11,T4_M11,T5_M11,U1_M11,ZSPAN_M11,X2_M11,X0_M11,X1_M11
2024-05-29 07:00:00,SystemResetWarning,0833.9,5.00,000.00,030.9,030.0,000.0,039.3,032.5,025.9,0003.1,0006.58,0018.95,0004.50
2024-05-29 07:01:00,SystemResetWarning,0834.0,4.99,000.00,030.9,030.0,000.0,039.3,032.5,025.9,0003.1,0006.59,0018.64,0004.50
2024-05-29 07:02:00,SystemResetWarning,0833.9,5.00,000.00,030.8,030.0,000.0,039.3,032.5,025.9,0003.3,0006.62,0019.11,0004.53
2024-05-29 07:03:00,SystemResetWarning,0833.8,5.00,000.00,030.8,030.0,000.0,039.3,032.5,025.9,0003.2,0006.62,0019.69,0004.55
2024-05-29 07:04:00,SystemResetWarning,0833.8,5.00,000.00,030.8,030.0,000.0,039.3,032.5,025.9,0003.0,0006.65,0019.75,0004.56
2024-05-29 07:05:00,SystemResetWarning,0833.9,5.00,000.00,030.8,030.0,000.0,039.3,032.5,025.9,0003.2,0006.73,0019.79,0004.58
2024-05-29 07:06:00,SystemResetWarning,0833.8,5.00,000.00,030.8,030.0,000.0,039.3,032.5,025.7,0002.9,0006.80,0020.20,0004.61
2024-05-29 07:07:00,SystemResetWarning,0833.8,5.00,000.00,030.8,030.0,000.0,039.3,032.5,025.5,0002.4,0006.81,0019.79,0004.63
2024-05-29 07:08:00,SystemResetWarning,0833.8,5.01,000.00,030.8,030.0,000.0,039.3,032.4,025.5,0002.3,0006.83,0019.39,0004.67
2024-05-29 07:09:00,SystemResetWarning,0833.8,5.01,000.00,030.8,030.0,000.0,039.3,032.4,025.4,0002.9,0006.80,0021.16,0004.70
2024-05-29 07:10:00,SystemResetWarning,0833.7,5.00,000.00,030.8,029.9,000.0,039.3,032.4,025.4,0003.0,0006.79,0022.40,0004.71
2024-05-29 07:11:00,SystemResetWarning,0833.7,4.99,000.00,030.8,029.9,000.0,039.2,032.4,025.4,0003.1,0006.80,0022.56,0004.72
2024-05-29 07:12:00,SystemResetWarning,0833.7,5.00,000.00,030.8,029.9,000.0,039.2,032.4,025.5,0003.3,0006.88,0023.34,0004.74
2024-05-29 07:13:00,SystemResetWarning,0833.7,5.00,000.00,030.8,029.9,000.0,039.2,032.4,025.6,0003.3,0006.83,0023.08,0004.73
2024-05-29 07:14:00,SystemResetWarning,0833.7,5.00,000.00,030.8,029.9,000.0,039.2,032.4,025.8,0003.3,0006.85,0022.24,0004.74
2024-05-29 07:15:00,SystemResetWarning,0833.7,4.99,000.00,030.8,029.9,000.0,039.2,032.4,025.9,0003.3,0006.97,0021.88,0004.76
2024-05-29 07:16:00,SystemResetWarning,0833.6,5.00,000.00,030.8,029.9,000.0,039.2,032.4,026.0,0003.4,0006.92,0021.76,0004.75
2024-05-29 07:17:00,SystemResetWarning,0833.6,5.00,000.00,030.7,029.9,000.0,039.2,032.4,026.1,0003.4,0006.91,0021.82,0004.76
2024-05-29 07:18:00,SystemResetWarning,0833.6,5.00,000.00,030.7,029.9,000.0,039.2,032.4,026.3,0003.6,0006.89,0021.62,0004.77
2024-05-29 07:19:00,SystemResetWarning,0833.6,5.00,000.00,030.7,029.9,000.0,039.2,032.3,026.4,0003.7,0006.83,0023.71,0004.74
2024-05-29 07:20:00,SystemResetWarning,0833.6,5.00,000.00,030.7,029.9,000.0,039.2,032.4,026.4,0003.3,0006.79,0022.36,0004.72
2024-05-29 07:21:00,SystemResetWarning,0833.6,5.00,000.00,030.7,029.9,000.0,039.2,032.4,026.4,0003.1,0006.86,0022.30,0004.72
2024-05-29 07:22:00,SystemResetWarning,0833.6,5.00,000.00,030.7,029.8,000.0,039.2,032.3,026.4,0003.2,0006.91,0023.19,0004.70
2024-05-29 07:23:00,SystemResetWarning,0833.6,5.01,000.00,030.7,029.8,000.0,039.2,032.3,026.5,0003.1,0006.84,0022.65,0004.68
2024-05-29 07:24:00,SystemResetWarning,0833.6,5.01,000.00,030.7,029.8,000.0,039.2,032.3,026.6,0003.1,0006.84,0022.08,0004.66
2024-05-29 07:25:00,SystemResetWarning,0833.6,5.01,000.00,030.7,029.8,000.0,039.2,032.3,026.7,0003.2,0006.81,0021.93,0004.65
2024-05-29 07:26:00,SystemResetWarning,0833.6,4.99,000.00,030.7,029.8,000.0,039.2,032.3,026.7,0003.5,0006.76,0022.24,0004.64
2024-05-29 07:27:00,SystemResetWarning,0833.6,5.00,000.00,030.6,029.8,000.0,039.2,032.3,026.5,0003.3,0006.76,0022.61,0004.64
2024-05-29 07:28:00,SystemResetWarning,0833.5,4.99,000.00,030.6,029.8,000.0,039.1,032.3,026.5,0002.9,0006.80,0022.52,0004.62
2024-05-29 07:29:00,SystemResetWarning,0833.5,4.99,000.00,030.6,029.7,000.0,039.1,032.3,026.5,0002.7,0006.76,0022.72,0004.60
2024-05-29 07:30:00,SystemResetWarning,0833.4,5.00,000.00,030.6,029.7,000.0,039.1,032.2,026.5,0002.3,0006.81,0021.57,0004.60
2024-05-29 07:31:00,SystemResetWarning,0833.4,5.01,000.00,030.6,029.7,000.0,039.1,032.3,026.3,0002.7,0006.88,0020.48,0004.59
2024-05-29 07:32:00,SystemResetWarning,0833.4,5.01,000.00,030.6,029.7,000.0,039.1,032.2,026.3,0003.1,0006.82,0019.53,0004.58
2024-05-29 07:33:00,SystemResetWarning,0833.4,5.00,000.00,030.6,029.7,000.0,039.1,032.2,026.3,0003.2,0006.79,0018.02,0004.58
2024-05-29 07:34:00,SystemResetWarning,0833.4,4.99,000.00,030.6,029.7,000.0,039.1,032.2,026.2,0003.4,0006.79,0017.70,0004.59
2024-05-29 07:35:00,SystemResetWarning,0833.4,4.99,000.00,030.6,029.7,000.0,039.1,032.2,026.2,0003.6,0006.81,0018.57,0004.61
2024-05-29 07:36:00,SystemResetWarning,0833.4,4.99,000.00,030.6,029.6,000.0,039.1,032.2,026.2,0003.1,0006.81,0018.86,0004.60
2024-05-29 07:37:00,SystemResetWarning,0833.4,5.00,000.00,030.5,029.6,000.0,039.1,032.2,026.2,0002.8,0006.75,0019.55,0004.60
2024-05-29 07:38:00,SystemResetWarning,0833.4,5.02,000.00,030.5,029.6,000.0,039.0,032.2,026.1,0002.7,0006.74,0020.49,0004.59
2024-05-29 07:39:00,SystemResetWarning,0833.4,4.99,000.00,030.5,029.6,000.0,039.0,032.2,026.1,0003.1,0006.71,0020.70,0004.60
2024-05-29 07:40:00,SystemResetWarning,0833.4,4.99,000.00,030.5,029.6,000.0,039.0,032.2,026.0,0002.9,0006.71,0020.84,0004.62
2024-05-29 07:41:00,SystemResetWarning,0833.4,5.00,000.00,030.5,029.6,000.0,039.0,032.2,026.0,0002.7,0006.63,0021.06,0004.61
2024-05-29 07:42:00,SystemResetWarning,0833.4,5.01,000.00,030.5,029.6,000.0,039.0,032.2,026.0,0001.9,0006.53,0020.85,0004.61
2024-05-29 07:43:00,SystemResetWarning,0833.4,5.00,000.00,030.5,029.6,000.0,039.0,032.2,026.0,0001.4,0006.63,0020.90,0004.63
2024-05-29 07:44:00,SystemResetWarning,0833.4,5.00,000.00,030.5,029.6,000.0,039.0,032.2,026.0,0001.7,0006.60,0020.64,0004.65
2024-05-29 07:45:00,SystemResetWarning,0833.4,5.01,000.00,030.5,029.6,000.0,039.0,032.2,026.0,0001.8,0006.64,0021.42,0004.66
2024-05-29 07:46:00,SystemResetWarning,0833.4,4.99,000.00,030.5,029.6,000.0,039.0,032.2,026.0,0001.5,0006.69,0021.10,0004.66
2024-05-29 07:47:00,SystemResetWarning,0833.4,4.99,000.00,030.5,029.6,000.0,039.0,032.2,026.0,0001.7,0006.78,0021.14,0004.67
2024-05-29 07:48:00,SystemResetWarning,0833.4,4.99,000.00,030.5,029.6,000.0,039.0,032.2,026.0,0001.8,0006.79,0020.72,0004.68
2024-05-29 07:49:00,SystemResetWarning,0833.4,5.01,000.00,030.4,029.6,000.0,039.0,032.1,026.0,0001.9,0006.78,0019.22,0004.69
2024-05-29 07:50:00,SystemResetWarning,0833.4,5.00,000.00,030.4,029.6,000.0,039.0,032.1,026.0,0001.4,0006.79,0018.98,0004.69
2024-05-29 07:51:00,SystemResetWarning,0833.4,5.00,000.00,030.4,029.5,000.0,039.0,032.1,026.0,0001.8,0006.74,0020.40,0004.69
2024-05-29 07:52:00,SystemResetWarning,0833.4,4.99,000.00,030.4,029.5,000.0,038.9,032.1,026.0,0001.7,0006.77,0020.13,0004.69
2024-05-29 07:53:00,SystemResetWarning,0833.5,5.00,000.00,030.4,029.6,000.0,038.9,032.1,026.0,0002.0,0006.83,0020.16,0004.71
2024-05-29 07:54:00,SystemResetWarning,0833.4,5.00,000.00,030.4,029.6,000.0,038.9,032.2,026.0,0002.4,0006.77,0020.36,0004.72
2024-05-29 07:55:00,SystemResetWarning,0833.4,5.00,000.00,030.4,029.6,000.0,038.9,032.1,026.0,0002.2,0006.74,0020.35,0004.73
2024-05-29 07:56:00,SystemResetWarning,0833.4,5.00,000.00,030.4,029.6,000.0,038.9,032.1,026.0,0001.7,0006.70,0020.04,0004.72
2024-05-29 07:57:00,SystemResetWarning,0833.4,5.00,000.00,030.4,029.6,000.0,038.9,032.1,026.0,0002.1,0006.66,0019.54,0004.72
2024-05-29 07:58:00,SystemResetWarning,0833.4,5.01,000.00,030.4,029.6,000.0,038.9,032.1,026.0,0002.5,0006.60,0018.75,0004.72
2024-05-29 07:59:00,SystemResetWarning,0833.4,5.01,000.00,030.4,029.6,000.0,038.9,032.1,026.0,0002.9,0006.62,0018.83,0004.72
